TimePDT,TemperatureF,Dew PointF,Humidity,Sea Level PressureIn,VisibilityMPH,Wind Direction,Wind SpeedMPH,Gust SpeedMPH,PrecipitationIn,Events,Conditions,WindDirDegrees,DateUTC
12:15 AM,57.2,41.0,55,30.02,10.0,WNW,12.7,-,N/A,,Clear,290,2013-10-03 07:15:00
12:35 AM,57.2,41.0,55,30.03,10.0,WNW,9.2,-,N/A,,Clear,290,2013-10-03 07:35:00
12:55 AM,57.2,41.0,55,30.03,10.0,WNW,8.1,-,N/A,,Clear,290,2013-10-03 07:55:00
1:15 AM,57.2,41.0,55,30.03,10.0,WNW,6.9,-,N/A,,Clear,300,2013-10-03 08:15:00
1:35 AM,57.2,41.0,55,30.04,10.0,NW,4.6,-,N/A,,Clear,310,2013-10-03 08:35:00
1:55 AM,55.4,41.0,58,30.04,10.0,WNW,5.8,-,N/A,,Clear,300,2013-10-03 08:55:00
2:15 AM,55.4,41.0,58,30.05,10.0,WNW,5.8,-,N/A,,Clear,300,2013-10-03 09:15:00
2:35 AM,55.4,41.0,58,30.04,10.0,West,6.9,-,N/A,,Clear,280,2013-10-03 09:35:00
2:55 AM,55.4,41.0,58,30.04,10.0,West,5.8,-,N/A,,Clear,280,2013-10-03 09:55:00
3:15 AM,55.4,41.0,58,30.04,10.0,WNW,4.6,-,N/A,,Clear,290,2013-10-03 10:15:00
3:35 AM,55.4,41.0,58,30.05,10.0,WNW,4.6,-,N/A,,Clear,300,2013-10-03 10:35:00
3:55 AM,55.4,41.0,58,30.04,10.0,WNW,3.5,-,N/A,,Clear,300,2013-10-03 10:55:00
4:15 AM,55.4,41.0,58,30.04,10.0,WNW,4.6,-,N/A,,Clear,300,2013-10-03 11:15:00
4:35 AM,55.4,41.0,58,30.05,10.0,WNW,4.6,-,N/A,,Clear,290,2013-10-03 11:35:00
4:55 AM,55.4,41.0,58,30.05,10.0,WNW,4.6,-,N/A,,Clear,300,2013-10-03 11:55:00
5:15 AM,55.4,39.2,54,30.04,10.0,West,3.5,-,N/A,,Clear,280,2013-10-03 12:15:00
5:35 AM,55.4,39.2,54,30.05,10.0,WNW,4.6,-,N/A,,Clear,290,2013-10-03 12:35:00
5:55 AM,55.4,39.2,54,30.05,10.0,WNW,4.6,-,N/A,,Clear,300,2013-10-03 12:55:00
6:15 AM,55.4,39.2,54,30.05,10.0,WNW,5.8,-,N/A,,Clear,300,2013-10-03 13:15:00
6:35 AM,55.4,39.2,54,30.06,10.0,NW,3.5,-,N/A,,Clear,310,2013-10-03 13:35:00
6:47 AM,55.4,39.2,54,30.06,10.0,West,5.8,-,N/A,,Clear,280,2013-10-03 13:47:00
6:55 AM,55.4,39.2,54,30.06,10.0,WNW,4.6,-,N/A,,Clear,290,2013-10-03 13:55:00
7:47 AM,57.2,39.2,51,30.07,10.0,West,5.8,-,N/A,,Clear,270,2013-10-03 14:47:00
8:47 AM,59.0,39.2,48,30.09,10.0,NW,6.9,-,N/A,,Clear,310,2013-10-03 15:47:00
9:47 AM,62.6,41.0,45,30.09,10.0,NNW,5.8,-,N/A,,Partly Cloudy,330,2013-10-03 16:47:00
10:47 AM,62.6,39.2,42,30.09,10.0,NW,6.9,-,N/A,,Partly Cloudy,320,2013-10-03 17:47:00
11:47 AM,64.4,35.6,34,30.07,10.0,NNW,6.9,-,N/A,,Clear,330,2013-10-03 18:47:00
12:47 PM,68.0,33.8,28,30.05,10.0,NW,10.4,-,N/A,,Clear,320,2013-10-03 19:47:00
1:47 PM,69.8,32.0,25,30.01,10.0,NW,11.5,16.1,N/A,,Clear,320,2013-10-03 20:47:00
2:57 PM,69.8,35.6,28,30.00,10.0,WNW,15.0,-,N/A,,Clear,290,2013-10-03 21:57:00
3:57 PM,69.8,35.6,28,29.98,10.0,WNW,15.0,-,N/A,,Clear,290,2013-10-03 22:57:00
4:50 PM,71.6,35.6,27,29.97,10.0,WNW,10.4,-,N/A,,Clear,290,2013-10-03 23:50:00
5:47 PM,68.0,37.4,33,29.97,10.0,West,9.2,-,N/A,,Clear,270,2013-10-04 00:47:00
6:47 PM,68.0,37.4,33,29.96,10.0,WNW,10.4,-,N/A,,Clear,290,2013-10-04 01:47:00
7:53 PM,66.2,35.6,32,29.97,10.0,WNW,8.1,-,N/A,,Clear,290,2013-10-04 02:53:00
9:35 PM,66.2,33.8,30,29.98,10.0,NW,9.2,-,N/A,,Clear,310,2013-10-04 04:35:00
9:55 PM,66.2,32.0,28,29.98,10.0,NW,9.2,-,N/A,,Clear,320,2013-10-04 04:55:00
10:15 PM,68.0,35.6,30,29.97,10.0,NNW,12.7,-,N/A,,Clear,330,2013-10-04 05:15:00
10:35 PM,68.0,35.6,30,29.98,10.0,NNW,11.5,-,N/A,,Clear,330,2013-10-04 05:35:00
10:55 PM,68.0,37.4,33,29.98,10.0,NNW,9.2,-,N/A,,Clear,330,2013-10-04 05:55:00
11:15 PM,68.0,37.4,33,29.98,10.0,NNW,8.1,-,N/A,,Clear,330,2013-10-04 06:15:00
11:35 PM,68.0,35.6,30,29.99,10.0,NNW,6.9,-,N/A,,Clear,330,2013-10-04 06:35:00
11:55 PM,68.0,37.4,33,29.99,10.0,NNW,5.8,-,N/A,,Clear,340,2013-10-04 06:55:00